Change the Weather History Date:

Thursday, November 4, 2010

  Actual Average Record
Temperature  
Mean Temperature 46 °F -  
Max Temperature 55 °F 59 °F 81 °F (1961)
Min Temperature 37 °F 35 °F 18 °F (1937)
Degree Days  
Heating Degree Days 19    
Moisture  
Dew Point 36 °F    
Average Humidity 74    
Maximum Humidity 93    
Minimum Humidity 41    
Precipitation  
Precipitation 0.00 in - - ()
Sea Level Pressure  
Sea Level Pressure 29.69 in    
Wind  
Wind Speed 3 mph (NNW)    
Max Wind Speed 12 mph    
Max Gust Speed -    
Visibility 9 miles    
Events Rain    
Averages and records for this station are not official NWS values.
T = Trace of Precipitation, MM = Missing Value Source: NWS Daily Summary

Daily Weather History Graph

Daily Weather History Graph

Search for Another Location

Airport or City:

Trip Planner

Search our weather history database for the weather conditions in past years. The results will help you decide how hot, cold, wet, or windy it might be!

Date:

Astronomy

Nov. 04, 2010 Rise Set
Actual Time 8:02 AM EDT 6:25 PM EDT
Civil Twilight 7:34 AM EDT 6:53 PM EDT
Nautical Twilight 7:02 AM EDT 7:25 PM EDT
Astronomical Twilight 6:30 AM EDT 7:56 PM EDT
Moon 6:13 AM EDT (11/4) 5:08 PM EDT (11/4)
Length of Visible Light 11h 18m
Length of Day
10h 22m
Waning Crescent, 3% of the Moon is Illuminated
Nov 4
Waning Crescent
Nov 6
New
Nov 13
First Quarter
Nov 21
Full
Nov 28
Last Quarter

Hourly Weather History & Observations

Time (EDT) Temp. Windchill Dew Point Humidity Pressure Visibility Wind Dir Wind Speed Gust Speed Precip Events Conditions
12:53 AM 39.9 °F 37.8 °F 36.0 °F 86% 29.81 in 10.0 mi WNW 3.5 mph - 0.00 in   Overcast
1:53 AM 41.0 °F - 37.0 °F 86% 29.78 in 10.0 mi Calm Calm - N/A   Overcast
2:53 AM 41.0 °F - 37.9 °F 89% 29.76 in 10.0 mi Calm Calm - N/A   Overcast
3:53 AM 41.0 °F 39.0 °F 37.0 °F 86% 29.73 in 10.0 mi North 3.5 mph - N/A   Overcast
4:53 AM 39.9 °F - 37.0 °F 89% 29.73 in 10.0 mi Calm Calm - N/A   Mostly Cloudy
5:53 AM 39.9 °F - 37.0 °F 89% 29.71 in 10.0 mi Calm Calm - N/A   Mostly Cloudy
6:53 AM 39.9 °F - 37.0 °F 89% 29.70 in 10.0 mi Calm Calm - N/A   Clear
7:53 AM 39.0 °F - 36.0 °F 89% 29.70 in 10.0 mi Calm Calm - N/A   Mostly Cloudy
8:53 AM 37.9 °F - 36.0 °F 93% 29.71 in 8.0 mi Calm Calm - N/A   Overcast
9:53 AM 39.9 °F 37.8 °F 37.0 °F 89% 29.72 in 7.0 mi NW 3.5 mph - N/A   Clear
10:53 AM 44.1 °F - 37.9 °F 79% 29.71 in 8.0 mi Calm Calm - N/A   Scattered Clouds
11:53 AM 48.0 °F - 36.0 °F 63% 29.68 in 10.0 mi Calm Calm - N/A   Clear
12:53 PM 51.1 °F - 35.1 °F 54% 29.65 in 10.0 mi North 6.9 mph - N/A   Clear
1:53 PM 54.0 °F - 30.9 °F 41% 29.62 in 10.0 mi WNW 6.9 mph - N/A   Clear
2:53 PM 55.0 °F - 33.1 °F 43% 29.61 in 10.0 mi WNW 10.4 mph - N/A   Partly Cloudy
3:53 PM 53.1 °F - 34.0 °F 48% 29.63 in 9.0 mi NNW 10.4 mph - N/A   Clear
4:53 PM 53.1 °F - 35.1 °F 50% 29.63 in 7.0 mi NNW 11.5 mph - N/A   Scattered Clouds
5:53 PM 48.0 °F - 34.0 °F 58% 29.64 in 7.0 mi NNW 5.8 mph - N/A   Clear
6:53 PM 44.1 °F 40.8 °F 34.0 °F 68% 29.65 in 10.0 mi North 5.8 mph - N/A   Clear
7:53 PM 41.0 °F 38.0 °F 34.0 °F 76% 29.67 in 10.0 mi NW 4.6 mph - N/A   Partly Cloudy
8:53 PM 43.0 °F 39.5 °F 36.0 °F 76% 29.67 in 10.0 mi NNW 5.8 mph - N/A   Mostly Cloudy
9:53 PM 45.0 °F 41.8 °F 37.0 °F 74% 29.67 in 8.0 mi NNW 5.8 mph - N/A   Overcast
10:53 PM 44.1 °F 39.0 °F 37.0 °F 76% 29.68 in 7.0 mi North 9.2 mph - N/A   Overcast
11:53 PM 42.1 °F 37.1 °F 37.9 °F 85% 29.68 in 9.0 mi NW 8.1 mph - 0.00 in Rain Light Rain